Search for airport 
image banner adimage banner ad
image banner ad

SSCO - Comandante Marilda Zaiden de Mesquita Airport

Located in Capão Do Leão, Brazil

ICAO - SSCO, IATA -

Data provided by Airmate  

General information

Coordinates: S31°46'27" W52°27'5"
Elevation is 32 feet MSL.
Magnetic variation is -15° East
View others Airports in Rio Grande do Sul

Operational data

Open for public use
Current time UTC:
Current local time:
Weather at : SBPK - Pelotas ( 13 km )
METAR: SBPK 021615Z 09015KT 9999 BKN032 28/20 Q1009
TAF: TAF SBPK 020900Z 0212/0312 08012KT 9000 SHRA SCT022 TX25/0217Z TN21/0306Z BECMG 0215/0217 08014KT 9999 FEW018 SCT024 BECMG 0218/0220 08010KT SCT012 SCT023 PROB40 0302/0306 07008KT 4000 TSRA BKN008 FEW025CB BECMG 0307/0309 03004KT 8000 DZ BKN014 FEW032TCU RMK PAY
View NOTAMs / SUP AIP / TFR affecting this airport [VIEW]
Communications frequencies: [VIEW]

Runways:

RWY identifierQFULength (ft)Width (ft)SurfaceLDA (ft)
03262459GRASS
21262459GRASS

Airport contact information

Address: Capão Do Leão Brazil

Satellite view of SSCO